Temperature
17 17 17 17 17 17 17 17 17 17 17 17 17 17 17 17 17 17 17 17 17 17 17 17 17 17 17 17 17 18 18 18 18 18 18 18 18 18 18 18 18 18 18
17 17 17 17 17 17 17 17 17 17 17 17 17 17 17 17 17 17 17 17 17 17 17 17 17 17 17 17 17 17 17 17 17 17 18 18 18 18 18 18 18 18 18
17 17 17 17 17 17 17 17 17 17 17 17 17 17 17 17 17 17 17 17 17 17 17 17 17 17 17 17 17 17 17 17 17 17 17 17 17 18 18 18 18 18 18
17 17 17 17 17 17 17 17 17 17 17 17 16 16 16 16 16 16 16 17 17 17 17 17 17 17 17 17 17 17 17 17 17 17 17 17 17 17 18 18 18 18 18
17 17 17 17 17 17 17 17 17 17 17 17 17 16 16 16 16 16 16 16 17 17 17 17 17 17 17 17 17 17 17 17 17 17 17 17 17 17 18 18 18 18 18
17 17 17 17 17 17 17 17 17 17 16 16 16 16 16 16 16 16 16 16 17 17 17 17 17 17 17 17 17 17 17 17 17 17 17 17 17 17 17 17 18 18 18
17 17 17 17 17 17 17 17 17 16 16 16 16 16 16 16 16 16 16 16 16 16 16 16 16 16 17 17 17 17 17 17 17 17 17 17 17 17 17 17 17 18 18
17 17 17 17 17 17 17 17 16 16 16 16 16 16 16 16 16 16 16 16 16 16 16 16 16 16 16 16 17 16 17 17 17 17 17 17 17 17 17 17 17 17 17
17 17 17 17 17 17 17 16 16 16 16 16 16 16 16 16 16 16 16 16 16 16 16 16 16 16 16 16 16 16 16 17 17 17 17 17 17 17 17 17 17 17 17
17 17 17 17 17 17 16 16 16 16 16 16 16 16 16 16 16 16 16 16 16 16 16 16 16 16 16 16 16 16 16 16 17 17 17 17 17 17 17 17 17 17 17
17 17 17 17 17 16 16 16 16 16 16 16 16 16 16 16 16 16 16 16 16 16 16 16 16 16 16 16 16 16 16 16 16 16 16 17 17 17 17 17 17 17 17
17 17 17 17 17 16 16 16 16 16 16 16 16 16 16 16 16 16 16 16 16 16 16 16 16 16 16 16 16 16 16 16 16 16 16 16 16 17 17 17 17 17 17
17 17 17 17 17 17 16 16 16 16 16 16 16 16 16 16 16 16 16 16 16 16 16 16 16 16 16 16 16 16 16 16 16 16 16 16 16 16 16 16 17 17 17
17 17 17 17 17 17 16 16 16 16 16 16 16 16 16 16 16 16 16 16 16 16 16 16 16 16 16 16 16 16 16 16 16 16 16 16 16 16 16 16 16 16 17
17 17 17 17 17 17 16 16 16 16 16 16 16 16 16 16 16 16 16 16 16 16 16 16 16 16 16 16 16 16 16 16 16 16 16 16 16 16 16 16 16 16 16
17 17 17 17 17 17 17 16 16 16 16 16 16 16 16 16 16 16 16 16 16 16 16 16 16 16 16 16 16 15 15 15 15 15 16 16 16 16 16 16 16 16 16
18 17 17 17 17 17 17 16 16 16 16 16 16 16 16 16 16 16 16 16 16 16 16 16 16 16 15 15 15 15 15 15 15 15 15 15 15 15 15 15 15 16 16
18 17 17 17 17 17 17 16 16 16 16 16 16 16 16 16 16 16 16 16 16 16 16 16 16 15 15 15 15 15 15 15 15 15 15 15 15 15 15 15 15 15 15
18 17 17 17 17 17 17 16 16 16 16 16 16 16 16 16 16 16 16 16 16 16 16 16 15 15 15 15 15 15 15 15 15 15 15 15 15 15 15 15 15 15 15
18 18 17 17 17 17 17 16 16 16 16 16 16 16 16 16 16 16 16 16 16 16 16 15 15 15 15 15 15 15 15 15 14 15 15 15 15 15 15 15 15 15 15
18 18 17 17 17 17 17 16 16 16 16 16 16 16 16 16 16 16 16 16 16 15 15 15 15 15 15 15 15 15 14 14 14 14 14 14 14 15 15 15 15 15 15
18 18 17 17 17 17 17 16 16 16 16 16 16 16 16 16 16 16 16 16 16 15 15 15 15 15 15 15 15 15 14 14 14 14 14 14 14 14 14 14 15 15 15
18 18 18 17 17 17 17 16 16 16 16 16 16 16 16 16 16 16 16 16 15 15 15 15 15 15 15 15 15 15 15 14 14 14 14 14 14 14 14 14 14 14 14
18 18 18 17 17 17 17 17 16 16 16 16 16 16 16 16 16 15 16 16 15 15 15 15 15 15 15 15 15 15 15 15 14 14 14 14 14 14 14 14 14 14 14
18 18 18 17 17 17 17 17 16 16 16 16 16 16 16 16 15 15 15 15 15 15 15 15 15 15 15 15 15 15 15 15 15 14 14 14 14 14 14 14 14 14 14
18 18 18 17 17 17 17 17 16 16 16 16 16 16 16 16 16 15 15 15 15 15 15 15 15 15 15 15 15 15 15 15 15 15 14 14 14 13 13 14 14 14 14
Wind_Speed
1 4 9 11 12 13 13 13 13 14 14 13 14 13 13 13 13 12 12 12 11 11 10 10 10 10 9 9 8 8 8 8 8 7 8 8 8 8 8 8 7 6 8
5 7 10 12 13 13 13 13 13 13 13 13 13 12 12 12 12 11 11 11 10 10 10 9 9 9 8 8 8 7 7 8 7 7 7 7 8 8 8 8 8 7 7
7 8 10 12 13 13 13 13 13 13 13 13 12 12 12 11 11 11 10 10 9 9 9 8 8 7 8 7 7 7 7 7 7 6 6 5 6 8 8 8 8 8 7
9 9 11 13 13 13 13 13 13 13 12 12 12 11 11 11 10 10 10 9 9 8 8 8 7 7 7 6 6 6 7 7 7 7 6 5 5 7 8 8 7 7 7
9 10 12 14 14 13 13 13 13 12 12 11 11 10 10 10 9 9 9 9 8 8 8 7 6 6 6 6 6 6 7 8 8 8 7 6 6 7 7 7 7 7 7
8 10 13 14 14 13 13 12 12 12 11 11 10 9 9 9 8 8 8 8 7 7 7 6 6 6 6 7 7 7 7 8 8 7 6 6 6 7 7 7 7 6 6
8 10 12 14 13 13 12 12 11 11 10 10 9 9 8 8 8 8 7 7 6 6 6 6 6 6 6 6 7 8 9 9 8 7 6 5 6 7 7 6 6 6 5
8 9 11 13 13 12 11 11 10 9 9 8 8 7 7 7 7 6 6 6 6 5 5 5 5 6 6 6 7 7 8 8 8 7 5 5 6 7 7 6 6 6 5
8 8 8 9 11 11 10 9 9 8 6 6 5 5 5 4 5 5 5 5 5 5 4 4 5 5 6 7 8 9 9 9 8 6 5 4 5 6 6 6 6 5 5
7 6 7 7 8 8 7 7 6 5 4 3 3 3 2 2 2 3 3 3 4 4 3 3 4 4 6 7 8 9 9 9 8 6 5 5 6 6 6 6 6 5 5
6 5 5 6 6 6 5 4 3 2 1 1 1 1 1 1 1 1 1 1 2 3 3 2 3 4 6 7 8 9 9 7 7 6 5 7 7 7 7 7 6 6 5
7 5 4 5 5 5 3 2 1 1 1 1 1 1 1 1 1 1 1 2 3 3 4 3 3 5 6 7 8 9 7 7 6 6 6 7 7 7 8 7 7 7 6
7 6 5 4 5 4 2 2 1 1 2 2 2 1 2 2 1 1 2 3 4 4 4 5 5 6 6 6 6 7 7 6 6 6 7 8 8 8 8 8 8 8 8
6 6 5 5 4 4 4 2 2 1 2 3 3 3 4 3 2 1 1 2 3 3 3 4 4 5 6 7 7 7 7 6 6 6 8 10 10 9 9 9 9 9 9
6 5 5 5 4 4 4 3 3 2 3 5 6 5 6 3 2 1 2 3 4 4 5 4 5 6 6 6 6 6 6 6 7 7 8 11 11 10 9 9 10 10 10
6 5 5 6 5 5 4 3 3 4 5 7 6 6 6 6 4 3 3 4 4 5 6 6 6 5 4 5 5 5 5 6 7 7 8 9 12 12 11 10 10 10 10
7 6 6 6 6 6 5 4 4 5 7 6 6 8 7 7 6 5 3 3 4 6 7 7 6 6 4 5 5 5 6 5 6 7 7 8 9 11 12 11 11 11 10
7 7 6 8 7 6 5 5 5 7 7 6 8 8 8 8 8 6 4 3 5 6 5 4 4 5 4 4 4 4 4 5 6 7 8 8 8 8 11 12 12 12 12
8 8 7 7 7 6 6 6 6 7 6 7 8 7 8 8 8 7 5 4 6 5 4 4 4 3 4 4 4 4 4 4 4 6 6 7 8 9 9 11 12 13 13
7 8 8 7 6 6 5 5 4 5 4 6 7 7 8 8 8 8 5 5 7 5 4 4 4 4 3 3 5 5 5 4 4 4 4 6 7 8 9 10 10 10 12
6 7 7 6 5 5 4 3 3 2 2 3 4 7 7 7 7 7 4 4 4 4 4 4 3 5 4 3 4 4 5 5 5 4 4 4 5 7 8 9 9 9 9
7 7 7 7 6 5 4 3 3 2 1 1 2 5 7 7 7 6 5 3 3 4 5 4 3 3 2 2 3 3 3 4 4 5 4 4 4 6 6 8 9 9 9
8 8 8 7 6 5 5 4 4 4 3 3 3 3 4 6 7 7 6 5 4 4 3 3 3 4 2 1 2 3 3 2 1 4 4 4 3 3 3 6 8 8 9
8 8 8 7 6 5 6 6 5 3 2 1 0 1 2 5 6 6 6 5 4 3 3 3 3 3 3 1 1 2 2 4 3 1 3 3 3 3 3 4 5 6 8
8 8 8 7 6 6 6 6 6 4 2 1 1 2 2 3 4 5 5 5 4 3 3 3 4 4 3 3 2 2 3 3 3 3 1 2 3 3 2 2 3 4 6
7 7 7 7 5 5 6 6 6 6 5 4 2 2 1 2 2 3 4 4 4 3 3 3 3 4 4 4 3 2 2 2 2 3 2 1 1 2 2 2 2 2 3
Wind_Direction
117 119 112 107 105 102 99 95 93 92 92 91 90 89 88 87 84 82 83 83 82 82 80 80 81 83 84 84 82 81 81 86 92 93 89 88 91 95 99 102 99 92 93
138 121 113 110 106 103 99 96 95 93 93 91 90 90 89 87 86 85 84 82 80 79 77 76 78 84 85 82 80 79 78 85 89 89 90 89 92 93 96 99 99 98 94
126 118 114 113 108 105 101 99 98 96 94 93 91 90 89 87 86 84 83 83 82 81 80 79 80 84 83 78 74 69 70 78 86 83 85 91 95 97 97 97 97 95 92
129 122 118 114 110 107 103 100 99 99 97 96 93 91 89 86 84 83 84 83 82 82 83 83 84 84 80 74 69 66 66 72 76 79 83 93 100 102 101 99 95 92 90
123 123 123 117 112 108 104 101 99 99 98 97 96 93 90 88 86 85 85 82 83 82 83 84 83 80 77 70 66 66 68 75 79 78 82 91 95 102 101 98 95 93 90
120 124 123 117 113 109 106 103 101 100 99 98 96 93 92 89 86 85 83 84 83 82 82 83 80 76 71 65 62 64 67 77 77 77 84 96 100 100 97 96 96 93 92
120 121 121 117 113 109 108 107 104 102 99 97 94 92 91 88 85 85 84 85 85 83 83 81 76 72 68 62 62 66 71 78 78 81 84 95 103 99 95 96 98 96 92
124 124 124 122 118 114 112 110 108 106 101 98 95 93 91 87 87 85 86 84 83 81 79 78 72 68 67 64 63 70 75 77 78 77 77 89 101 98 96 95 96 94 89
126 128 127 125 123 122 121 117 115 113 109 103 99 97 97 94 94 94 91 88 84 81 78 75 70 68 60 62 61 65 73 77 72 66 71 83 97 98 99 98 95 93 88
129 134 136 132 129 130 129 129 128 123 118 112 102 99 103 93 92 92 97 90 83 76 68 64 63 55 49 57 60 69 77 74 65 57 55 81 92 98 99 98 97 94 85
135 145 148 144 141 145 150 138 132 120 109 94 75 69 66 13 358 340 83 73 59 55 49 43 42 41 46 54 63 75 73 65 59 53 57 77 83 90 98 98 95 89 83
152 163 165 161 162 167 162 140 119 94 63 31 357 355 7 236 238 263 332 13 28 35 33 36 39 36 52 55 64 73 71 60 55 51 61 72 81 88 89 89 88 83 78
162 162 169 171 163 155 143 137 112 39 25 10 353 32 80 95 60 42 17 6 13 25 33 40 45 49 64 75 79 80 73 65 56 50 58 68 79 85 86 85 82 79 73
152 161 172 166 157 152 145 128 104 67 51 43 46 77 91 77 51 46 33 23 27 47 57 53 64 64 73 81 89 87 79 71 65 56 59 67 74 83 85 82 78 74 69
137 145 156 152 146 129 111 101 94 73 60 57 56 63 82 82 66 63 37 43 49 68 79 77 77 72 74 78 87 91 83 81 76 66 61 65 68 73 79 78 74 71 65
131 125 126 132 126 111 100 94 85 78 69 61 56 57 75 82 72 64 53 47 54 74 88 92 88 84 77 75 70 79 89 88 82 74 66 63 64 69 71 71 69 66 62
132 123 120 120 103 101 97 92 83 75 69 60 56 61 73 77 74 67 58 48 45 74 85 85 78 75 76 72 64 66 73 78 83 79 71 64 62 65 67 66 65 63 60
128 118 113 116 104 96 93 88 83 77 71 60 60 63 68 66 72 73 64 52 59 75 81 84 78 78 71 70 64 55 60 68 74 79 74 70 68 64 62 64 64 59 56
135 123 112 110 107 102 91 82 78 76 67 61 62 60 62 65 73 76 66 61 72 74 72 87 76 89 89 83 78 57 48 53 58 75 71 70 71 70 65 62 63 59 55
135 127 125 117 114 108 91 77 63 55 47 51 55 59 62 66 74 77 72 63 72 72 61 73 81 72 84 90 85 62 40 41 50 55 63 64 67 72 70 65 59 54 53
135 135 135 131 130 119 105 99 88 66 42 37 44 56 61 66 70 75 76 66 71 77 79 85 93 78 63 77 82 52 26 33 45 40 49 57 54 65 69 63 58 52 46
154 150 144 147 144 135 132 134 132 126 98 59 29 41 52 60 64 76 80 76 75 81 73 70 88 92 64 63 108 96 45 13 15 24 28 52 52 59 64 63 60 53 48
157 160 158 160 148 140 132 111 87 65 46 31 27 24 31 60 69 81 85 87 80 84 88 79 96 113 116 31 85 135 137 176 350 359 17 33 44 51 52 61 58 52 48
170 164 157 157 150 144 133 128 129 130 140 188 178 37 34 54 67 83 86 87 85 83 88 87 91 100 115 98 33 54 126 145 137 50 353 5 32 48 41 58 56 52 49
168 161 159 153 153 149 139 138 135 136 154 143 102 76 49 37 57 79 85 84 87 87 90 88 88 86 97 111 109 87 75 69 91 128 124 342 3 4 22 43 55 51 49
157 154 153 151 156 153 144 142 144 147 146 134 130 118 66 37 31 60 83 83 89 91 94 96 95 93 94 95 92 97 117 119 130 124 144 188 320 324 352 10 30 34 48
Height
1539 1538 1538 1538 1538 1538 1538 1538 1538 1538 1538 1538 1538 1538 1538 1538 1538 1538 1537 1537 1537 1537 1537 1536 1536 1536 1536 1536 1536 1537 1537 1537 1536 1537 1537 1537 1537 1537 1537 1537 1537 1537 1537
1538 1539 1539 1539 1539 1539 1539 1539 1539 1539 1539 1539 1539 1539 1539 1539 1539 1538 1538 1538 1538 1537 1537 1537 1537 1537 1537 1537 1537 1537 1537 1537 1537 1537 1538 1538 1538 1538 1538 1538 1538 1538 1538
1539 1539 1540 1540 1540 1540 1540 1540 1540 1540 1540 1540 1540 1540 1540 1540 1540 1539 1539 1539 1538 1538 1538 1538 1538 1538 1538 1538 1538 1538 1538 1538 1538 1538 1538 1538 1538 1539 1538 1538 1539 1539 1539
1540 1540 1540 1540 1541 1541 1541 1541 1541 1541 1541 1541 1541 1541 1541 1541 1540 1540 1540 1540 1539 1539 1539 1538 1538 1538 1539 1539 1539 1539 1539 1539 1539 1539 1539 1539 1539 1539 1539 1539 1539 1539 1539
1540 1541 1541 1541 1541 1542 1542 1542 1542 1542 1542 1542 1542 1542 1542 1542 1541 1541 1541 1540 1540 1540 1540 1539 1539 1539 1540 1540 1540 1540 1540 1540 1540 1540 1540 1540 1540 1540 1540 1540 1540 1540 1540
1541 1542 1542 1542 1543 1543 1543 1543 1543 1543 1543 1543 1543 1543 1543 1543 1542 1542 1541 1541 1541 1541 1541 1540 1540 1540 1540 1540 1541 1541 1541 1541 1541 1541 1541 1541 1541 1540 1540 1540 1540 1540 1540
1542 1543 1543 1543 1544 1544 1544 1544 1544 1544 1545 1544 1544 1544 1544 1544 1543 1543 1542 1542 1542 1542 1542 1541 1541 1541 1541 1542 1542 1542 1541 1542 1541 1541 1541 1541 1541 1541 1541 1540 1540 1541 1540
1544 1544 1545 1545 1545 1546 1546 1546 1546 1546 1546 1546 1546 1545 1545 1545 1544 1544 1543 1543 1543 1543 1542 1542 1542 1542 1542 1543 1543 1543 1543 1543 1542 1542 1542 1542 1542 1541 1541 1541 1541 1541 1541
1545 1546 1546 1547 1547 1547 1548 1548 1548 1548 1548 1548 1547 1547 1547 1546 1546 1545 1545 1545 1544 1544 1544 1544 1544 1544 1544 1544 1544 1544 1544 1543 1543 1543 1543 1542 1542 1542 1542 1541 1541 1541 1541
1547 1548 1548 1549 1549 1549 1549 1549 1550 1550 1549 1549 1549 1549 1548 1548 1547 1547 1547 1546 1546 1546 1545 1545 1545 1545 1545 1545 1545 1545 1545 1545 1544 1544 1544 1543 1543 1542 1542 1542 1542 1541 1541
1548 1549 1550 1550 1551 1551 1551 1551 1551 1551 1551 1551 1550 1550 1550 1549 1549 1548 1548 1548 1548 1547 1547 1547 1546 1546 1546 1546 1546 1546 1546 1546 1545 1545 1545 1544 1543 1543 1542 1542 1542 1542 1541
1549 1551 1552 1552 1552 1552 1552 1553 1553 1553 1552 1552 1551 1551 1551 1551 1550 1550 1550 1549 1549 1549 1548 1548 1548 1548 1548 1548 1547 1547 1547 1547 1546 1546 1546 1545 1544 1544 1543 1543 1543 1542 1542
1551 1552 1553 1553 1553 1554 1554 1554 1554 1554 1553 1553 1552 1552 1552 1552 1552 1551 1551 1551 1550 1550 1550 1549 1549 1549 1549 1549 1549 1549 1548 1548 1547 1547 1546 1546 1545 1544 1544 1544 1543 1543 1542
1552 1553 1554 1554 1554 1555 1555 1555 1555 1555 1554 1554 1553 1553 1553 1553 1553 1552 1552 1552 1552 1551 1551 1551 1551 1551 1550 1550 1550 1550 1550 1549 1548 1548 1547 1547 1546 1545 1545 1545 1544 1544 1543
1552 1553 1554 1555 1555 1556 1556 1556 1556 1556 1555 1555 1555 1554 1554 1554 1553 1553 1553 1553 1553 1553 1552 1552 1552 1552 1552 1552 1551 1551 1551 1551 1550 1549 1548 1548 1547 1547 1546 1546 1545 1545 1544
1553 1554 1555 1556 1556 1557 1557 1557 1557 1557 1556 1556 1555 1555 1555 1555 1554 1554 1554 1554 1554 1554 1554 1554 1553 1553 1553 1553 1553 1553 1553 1552 1552 1551 1550 1549 1549 1548 1548 1547 1547 1546 1545
1554 1555 1556 1557 1558 1558 1558 1558 1558 1558 1557 1557 1556 1556 1556 1555 1555 1555 1555 1554 1554 1555 1555 1555 1555 1555 1555 1555 1554 1554 1554 1554 1553 1553 1552 1551 1551 1550 1549 1549 1548 1547 1546
1555 1555 1557 1558 1558 1559 1559 1559 1559 1558 1558 1557 1557 1557 1556 1556 1556 1556 1555 1555 1555 1555 1556 1556 1556 1556 1556 1556 1556 1556 1556 1555 1555 1555 1554 1553 1553 1552 1551 1550 1550 1549 1548
1555 1556 1557 1558 1559 1559 1560 1560 1559 1559 1559 1558 1558 1557 1557 1557 1556 1556 1556 1555 1556 1556 1556 1556 1557 1557 1557 1557 1557 1557 1557 1557 1557 1556 1556 1555 1554 1554 1553 1552 1551 1550 1549
1556 1557 1558 1559 1559 1560 1560 1560 1560 1560 1560 1559 1559 1558 1558 1558 1557 1557 1556 1556 1556 1556 1557 1557 1557 1558 1558 1558 1558 1558 1559 1558 1558 1558 1557 1557 1556 1555 1554 1553 1552 1551 1550
1556 1557 1558 1559 1560 1560 1561 1561 1561 1561 1560 1560 1560 1559 1559 1559 1558 1557 1557 1557 1556 1556 1557 1557 1558 1558 1558 1559 1559 1559 1560 1560 1560 1559 1559 1558 1557 1557 1556 1555 1554 1553 1552
1555 1557 1558 1559 1560 1561 1561 1561 1561 1561 1561 1561 1561 1560 1560 1559 1559 1558 1558 1557 1557 1557 1557 1558 1558 1558 1559 1559 1560 1560 1561 1562 1561 1561 1560 1559 1559 1558 1557 1556 1555 1554 1553
1555 1557 1558 1559 1560 1561 1561 1561 1562 1562 1562 1562 1561 1561 1561 1560 1559 1559 1558 1558 1558 1558 1558 1558 1558 1559 1559 1559 1560 1561 1561 1561 1561 1562 1561 1561 1560 1559 1558 1557 1557 1556 1555
1554 1556 1557 1559 1560 1561 1561 1561 1562 1562 1562 1562 1562 1562 1561 1561 1560 1560 1559 1559 1558 1558 1558 1559 1559 1559 1559 1559 1559 1560 1561 1561 1561 1562 1562 1562 1561 1560 1559 1559 1558 1557 1556
1553 1555 1557 1558 1559 1560 1561 1562 1562 1562 1562 1562 1562 1562 1561 1561 1561 1560 1560 1559 1559 1559 1559 1559 1559 1559 1559 1559 1559 1560 1560 1560 1561 1561 1562 1562 1562 1561 1560 1560 1559 1558 1557
1552 1554 1556 1557 1559 1560 1561 1561 1562 1562 1563 1563 1562 1562 1562 1562 1561 1561 1561 1560 1560 1560 1560 1560 1560 1560 1560 1560 1560 1560 1560 1560 1561 1561 1561 1561 1561 1562 1561 1561 1560 1559 1558